This is the latest recevied weather packets stored in our database for station/object KC5TXI. If no packets are shown the sender has not sent any weather packets the latest 10 day(s).
| Time | Temp. | Humidity | Pressure | Rain* | Wind** | Luminosity | Snow |
|---|---|---|---|---|---|---|---|
| 1787520206 | 43.89° C | 25% | 1013.6 hPa | 0 mm | - | 507 W/m² | - |
| 1787519901 | 44.44° C | 25% | 1013.7 hPa | 0 mm | - | 528 W/m² | - |
| 1787519597 | 44.44° C | 25% | 1013.9 hPa | 0 mm | - | 563 W/m² | - |
| 1787519296 | 43.89° C | 25% | 1013.8 hPa | 0 mm | - | 570 W/m² | - |
| 1787518992 | 44.44° C | 26% | 1013.8 hPa | 0 mm | - | 543 W/m² | - |
| 1787518687 | 44.44° C | 25% | 1013.9 hPa | 0 mm | - | 500 W/m² | - |
| 1787518382 | 43.89° C | 25% | 1013.9 hPa | 0 mm | - | 494 W/m² | - |
| 1787518078 | 45° C | 25% | 1014.1 hPa | 0 mm | - | 557 W/m² | - |
| 1787517773 | 44.44° C | 26% | 1014.1 hPa | 0 mm | - | 559 W/m² | - |
| 1787517470 | 43.89° C | 25% | 1014.3 hPa | 0 mm | - | 556 W/m² | - |
| 1787517166 | 42.78° C | 25% | 1014.3 hPa | 0 mm | - | 575 W/m² | - |
| 1787516864 | 43.89° C | 25% | 1014.3 hPa | 0 mm | - | 599 W/m² | - |
| 1787516560 | 43.89° C | 25% | 1014.6 hPa | 0 mm | - | 597 W/m² | - |
| 1787516259 | 43.89° C | 26% | 1014.4 hPa | 0 mm | - | 593 W/m² | - |
| 1787515955 | 43.89° C | 25% | 1014.6 hPa | 0 mm | - | 615 W/m² | - |
| 1787515651 | 43.89° C | 26% | 1014.6 hPa | 0 mm | - | 632 W/m² | - |
| 1787515345 | 44.44° C | 26% | 1014.8 hPa | 0 mm | - | 678 W/m² | - |
| 1787515040 | 43.89° C | 26% | 1014.8 hPa | 0 mm | - | 673 W/m² | - |
| 1787514738 | 43.89° C | 26% | 1014.7 hPa | 0 mm | - | 678 W/m² | - |
| 1787514433 | 43.33° C | 26% | 1014.9 hPa | 0 mm | - | 666 W/m² | - |
| 1787514133 | 43.89° C | 26% | 1014.9 hPa | 0 mm | - | 269 W/m² | - |
| 1787513827 | 42.78° C | 26% | 1014.9 hPa | 0 mm | - | 649 W/m² | - |
| 1787513524 | 42.78° C | 28% | 1015.2 hPa | 0 mm | - | 587 W/m² | - |
| 1787513220 | 42.22° C | 27% | 1015.1 hPa | 0 mm | - | 536 W/m² | - |
| 1787512916 | 43.33° C | 26% | 1015.2 hPa | 0 mm | - | 607 W/m² | - |
* Rain latest hour (hover to see other rain measurements)
** Current wind speed in m/s (hover to see current wind gust speed)